Index of /20260430/WXO-DD/model_gdps/15km/12/120
Name Last modified Size Description
Parent Directory -
20260430T12Z_MSC_GDPS_AbsoluteVorticity_IsbL-0200_LatLon0.15_PT120H.grib2 2026-04-30 16:25 1.5M
20260430T12Z_MSC_GDPS_AbsoluteVorticity_IsbL-0250_LatLon0.15_PT120H.grib2 2026-04-30 16:25 1.3M
20260430T12Z_MSC_GDPS_AbsoluteVorticity_IsbL-0500_LatLon0.15_PT120H.grib2 2026-04-30 16:25 1.2M
20260430T12Z_MSC_GDPS_AbsoluteVorticity_IsbL-0700_LatLon0.15_PT120H.grib2 2026-04-30 16:25 1.3M
20260430T12Z_MSC_GDPS_AbsoluteVorticity_IsbL-0850_LatLon0.15_PT120H.grib2 2026-04-30 16:25 1.6M
20260430T12Z_MSC_GDPS_AirTemp-Max_AGL-2m_LatLon0.15_PT120H.grib2 2026-04-30 16:25 740K
20260430T12Z_MSC_GDPS_AirTemp-Min_AGL-2m_LatLon0.15_PT120H.grib2 2026-04-30 16:25 785K
20260430T12Z_MSC_GDPS_AirTemp_AGL-120m_LatLon0.15_PT120H.grib2 2026-04-30 16:25 904K
20260430T12Z_MSC_GDPS_AirTemp_AGL-2m_LatLon0.15_PT120H.grib2 2026-04-30 16:25 1.0M
20260430T12Z_MSC_GDPS_AirTemp_AGL-40m_LatLon0.15_PT120H.grib2 2026-04-30 16:25 805K
20260430T12Z_MSC_GDPS_AirTemp_AGL-80m_LatLon0.15_PT120H.grib2 2026-04-30 16:25 912K
20260430T12Z_MSC_GDPS_AirTemp_IsbL-0001_LatLon0.15_PT120H.grib2 2026-04-30 16:25 715K
20260430T12Z_MSC_GDPS_AirTemp_IsbL-0005_LatLon0.15_PT120H.grib2 2026-04-30 16:25 689K
20260430T12Z_MSC_GDPS_AirTemp_IsbL-0010_LatLon0.15_PT120H.grib2 2026-04-30 16:25 691K
20260430T12Z_MSC_GDPS_AirTemp_IsbL-0020_LatLon0.15_PT120H.grib2 2026-04-30 16:25 789K
20260430T12Z_MSC_GDPS_AirTemp_IsbL-0030_LatLon0.15_PT120H.grib2 2026-04-30 16:25 759K
20260430T12Z_MSC_GDPS_AirTemp_IsbL-0050_LatLon0.15_PT120H.grib2 2026-04-30 16:25 813K
20260430T12Z_MSC_GDPS_AirTemp_IsbL-0100_LatLon0.15_PT120H.grib2 2026-04-30 16:25 969K
20260430T12Z_MSC_GDPS_AirTemp_IsbL-0150_LatLon0.15_PT120H.grib2 2026-04-30 16:25 1.0M
20260430T12Z_MSC_GDPS_AirTemp_IsbL-0175_LatLon0.15_PT120H.grib2 2026-04-30 16:25 957K
20260430T12Z_MSC_GDPS_AirTemp_IsbL-0200_LatLon0.15_PT120H.grib2 2026-04-30 16:25 970K
20260430T12Z_MSC_GDPS_AirTemp_IsbL-0225_LatLon0.15_PT120H.grib2 2026-04-30 16:25 973K
20260430T12Z_MSC_GDPS_AirTemp_IsbL-0250_LatLon0.15_PT120H.grib2 2026-04-30 16:25 1.0M
20260430T12Z_MSC_GDPS_AirTemp_IsbL-0275_LatLon0.15_PT120H.grib2 2026-04-30 16:25 1.0M
20260430T12Z_MSC_GDPS_AirTemp_IsbL-0300_LatLon0.15_PT120H.grib2 2026-04-30 16:25 1.0M
20260430T12Z_MSC_GDPS_AirTemp_IsbL-0350_LatLon0.15_PT120H.grib2 2026-04-30 16:25 926K
20260430T12Z_MSC_GDPS_AirTemp_IsbL-0400_LatLon0.15_PT120H.grib2 2026-04-30 16:25 943K
20260430T12Z_MSC_GDPS_AirTemp_IsbL-0450_LatLon0.15_PT120H.grib2 2026-04-30 16:25 965K
20260430T12Z_MSC_GDPS_AirTemp_IsbL-0500_LatLon0.15_PT120H.grib2 2026-04-30 16:25 1.0M
20260430T12Z_MSC_GDPS_AirTemp_IsbL-0550_LatLon0.15_PT120H.grib2 2026-04-30 16:25 801K
20260430T12Z_MSC_GDPS_AirTemp_IsbL-0600_LatLon0.15_PT120H.grib2 2026-04-30 16:25 890K
20260430T12Z_MSC_GDPS_AirTemp_IsbL-0650_LatLon0.15_PT120H.grib2 2026-04-30 16:25 920K
20260430T12Z_MSC_GDPS_AirTemp_IsbL-0700_LatLon0.15_PT120H.grib2 2026-04-30 16:25 960K
20260430T12Z_MSC_GDPS_AirTemp_IsbL-0750_LatLon0.15_PT120H.grib2 2026-04-30 16:25 1.0M
20260430T12Z_MSC_GDPS_AirTemp_IsbL-0800_LatLon0.15_PT120H.grib2 2026-04-30 16:25 1.1M
20260430T12Z_MSC_GDPS_AirTemp_IsbL-0850_LatLon0.15_PT120H.grib2 2026-04-30 16:25 1.1M
20260430T12Z_MSC_GDPS_AirTemp_IsbL-0875_LatLon0.15_PT120H.grib2 2026-04-30 16:25 1.2M
20260430T12Z_MSC_GDPS_AirTemp_IsbL-0900_LatLon0.15_PT120H.grib2 2026-04-30 16:25 1.2M
20260430T12Z_MSC_GDPS_AirTemp_IsbL-0925_LatLon0.15_PT120H.grib2 2026-04-30 16:25 1.1M
20260430T12Z_MSC_GDPS_AirTemp_IsbL-0950_LatLon0.15_PT120H.grib2 2026-04-30 16:25 1.1M
20260430T12Z_MSC_GDPS_AirTemp_IsbL-0970_LatLon0.15_PT120H.grib2 2026-04-30 16:25 1.1M
20260430T12Z_MSC_GDPS_AirTemp_IsbL-0985_LatLon0.15_PT120H.grib2 2026-04-30 16:25 1.1M
20260430T12Z_MSC_GDPS_AirTemp_IsbL-1000_LatLon0.15_PT120H.grib2 2026-04-30 16:25 904K
20260430T12Z_MSC_GDPS_AirTemp_IsbL-1015_LatLon0.15_PT120H.grib2 2026-04-30 16:25 865K
20260430T12Z_MSC_GDPS_Albedo_Sfc_LatLon0.15_PT120H.grib2 2026-04-30 16:25 240K
20260430T12Z_MSC_GDPS_CAPE_Sfc_LatLon0.15_PT120H.grib2 2026-04-30 16:25 3.9M
20260430T12Z_MSC_GDPS_CIN_Sfc_LatLon0.15_PT120H.grib2 2026-04-30 16:25 3.0M
20260430T12Z_MSC_GDPS_CloudWater_EAtm_LatLon0.15_PT120H.grib2 2026-04-30 16:25 536K
20260430T12Z_MSC_GDPS_ConvectivePrecip-Accum_Sfc_LatLon0.15_PT120H.grib2 2026-04-30 16:25 3.5M
20260430T12Z_MSC_GDPS_DewPointDepression_AGL-2m_LatLon0.15_PT120H.grib2 2026-04-30 16:25 761K
20260430T12Z_MSC_GDPS_DewPointDepression_IsbL-0010_LatLon0.15_PT120H.grib2 2026-04-30 16:25 70K
20260430T12Z_MSC_GDPS_DewPointDepression_IsbL-0020_LatLon0.15_PT120H.grib2 2026-04-30 16:25 74K
20260430T12Z_MSC_GDPS_DewPointDepression_IsbL-0030_LatLon0.15_PT120H.grib2 2026-04-30 16:25 87K
20260430T12Z_MSC_GDPS_DewPointDepression_IsbL-0050_LatLon0.15_PT120H.grib2 2026-04-30 16:25 384K
20260430T12Z_MSC_GDPS_DewPointDepression_IsbL-0100_LatLon0.15_PT120H.grib2 2026-04-30 16:25 396K
20260430T12Z_MSC_GDPS_DewPointDepression_IsbL-0150_LatLon0.15_PT120H.grib2 2026-04-30 16:25 477K
20260430T12Z_MSC_GDPS_DewPointDepression_IsbL-0175_LatLon0.15_PT120H.grib2 2026-04-30 16:25 583K
20260430T12Z_MSC_GDPS_DewPointDepression_IsbL-0200_LatLon0.15_PT120H.grib2 2026-04-30 16:25 681K
20260430T12Z_MSC_GDPS_DewPointDepression_IsbL-0225_LatLon0.15_PT120H.grib2 2026-04-30 16:25 766K
20260430T12Z_MSC_GDPS_DewPointDepression_IsbL-0250_LatLon0.15_PT120H.grib2 2026-04-30 16:25 856K
20260430T12Z_MSC_GDPS_DewPointDepression_IsbL-0275_LatLon0.15_PT120H.grib2 2026-04-30 16:25 880K
20260430T12Z_MSC_GDPS_DewPointDepression_IsbL-0300_LatLon0.15_PT120H.grib2 2026-04-30 16:25 924K
20260430T12Z_MSC_GDPS_DewPointDepression_IsbL-0350_LatLon0.15_PT120H.grib2 2026-04-30 16:25 956K
20260430T12Z_MSC_GDPS_DewPointDepression_IsbL-0400_LatLon0.15_PT120H.grib2 2026-04-30 16:25 1.0M
20260430T12Z_MSC_GDPS_DewPointDepression_IsbL-0450_LatLon0.15_PT120H.grib2 2026-04-30 16:25 1.0M
20260430T12Z_MSC_GDPS_DewPointDepression_IsbL-0500_LatLon0.15_PT120H.grib2 2026-04-30 16:25 1.0M
20260430T12Z_MSC_GDPS_DewPointDepression_IsbL-0550_LatLon0.15_PT120H.grib2 2026-04-30 16:25 1.0M
20260430T12Z_MSC_GDPS_DewPointDepression_IsbL-0600_LatLon0.15_PT120H.grib2 2026-04-30 16:25 1.0M
20260430T12Z_MSC_GDPS_DewPointDepression_IsbL-0650_LatLon0.15_PT120H.grib2 2026-04-30 16:25 1.1M
20260430T12Z_MSC_GDPS_DewPointDepression_IsbL-0700_LatLon0.15_PT120H.grib2 2026-04-30 16:25 1.1M
20260430T12Z_MSC_GDPS_DewPointDepression_IsbL-0750_LatLon0.15_PT120H.grib2 2026-04-30 16:25 1.1M
20260430T12Z_MSC_GDPS_DewPointDepression_IsbL-0800_LatLon0.15_PT120H.grib2 2026-04-30 16:25 1.2M
20260430T12Z_MSC_GDPS_DewPointDepression_IsbL-0850_LatLon0.15_PT120H.grib2 2026-04-30 16:25 1.2M
20260430T12Z_MSC_GDPS_DewPointDepression_IsbL-0875_LatLon0.15_PT120H.grib2 2026-04-30 16:25 1.1M
20260430T12Z_MSC_GDPS_DewPointDepression_IsbL-0900_LatLon0.15_PT120H.grib2 2026-04-30 16:25 1.1M
20260430T12Z_MSC_GDPS_DewPointDepression_IsbL-0925_LatLon0.15_PT120H.grib2 2026-04-30 16:25 1.0M
20260430T12Z_MSC_GDPS_DewPointDepression_IsbL-0950_LatLon0.15_PT120H.grib2 2026-04-30 16:25 1.0M
20260430T12Z_MSC_GDPS_DewPointDepression_IsbL-0970_LatLon0.15_PT120H.grib2 2026-04-30 16:25 1.0M
20260430T12Z_MSC_GDPS_DewPointDepression_IsbL-0985_LatLon0.15_PT120H.grib2 2026-04-30 16:25 1.0M
20260430T12Z_MSC_GDPS_DewPointDepression_IsbL-1000_LatLon0.15_PT120H.grib2 2026-04-30 16:25 969K
20260430T12Z_MSC_GDPS_DewPointDepression_IsbL-1015_LatLon0.15_PT120H.grib2 2026-04-30 16:25 913K
20260430T12Z_MSC_GDPS_DewPoint_AGL-2m_LatLon0.15_PT120H.grib2 2026-04-30 16:25 610K
20260430T12Z_MSC_GDPS_DownwardLongwaveRadiationFlux-Accum_Sfc_LatLon0.15_PT120H.grib2 2026-04-30 16:25 803K
20260430T12Z_MSC_GDPS_DownwardShortwaveRadiationFlux-Accum_NTAtm_LatLon0.15_PT120H.grib2 2026-04-30 16:25 239K
20260430T12Z_MSC_GDPS_DownwardShortwaveRadiationFlux-Accum_Sfc_LatLon0.15_PT120H.grib2 2026-04-30 16:25 1.0M
20260430T12Z_MSC_GDPS_FreezingRain-Accum12h_Sfc_LatLon0.15_PT120H.grib2 2026-04-30 16:25 114K
20260430T12Z_MSC_GDPS_FreezingRain-Accum1h_Sfc_LatLon0.15_PT120H.grib2 2026-04-30 16:25 55K
20260430T12Z_MSC_GDPS_FreezingRain-Accum24h_Sfc_LatLon0.15_PT120H.grib2 2026-04-30 16:25 185K
20260430T12Z_MSC_GDPS_FreezingRain-Accum3h_Sfc_LatLon0.15_PT120H.grib2 2026-04-30 16:25 71K
20260430T12Z_MSC_GDPS_FreezingRain-Accum6h_Sfc_LatLon0.15_PT120H.grib2 2026-04-30 16:25 85K
20260430T12Z_MSC_GDPS_FreezingRain-Accum_Sfc_LatLon0.15_PT120H.grib2 2026-04-30 16:25 412K
20260430T12Z_MSC_GDPS_GeopotentialHeight_IsbL-0001_LatLon0.15_PT120H.grib2 2026-04-30 16:25 423K
20260430T12Z_MSC_GDPS_GeopotentialHeight_IsbL-0005_LatLon0.15_PT120H.grib2 2026-04-30 16:25 480K
20260430T12Z_MSC_GDPS_GeopotentialHeight_IsbL-0010_LatLon0.15_PT120H.grib2 2026-04-30 16:25 471K
20260430T12Z_MSC_GDPS_GeopotentialHeight_IsbL-0020_LatLon0.15_PT120H.grib2 2026-04-30 16:25 412K
20260430T12Z_MSC_GDPS_GeopotentialHeight_IsbL-0030_LatLon0.15_PT120H.grib2 2026-04-30 16:25 570K
20260430T12Z_MSC_GDPS_GeopotentialHeight_IsbL-0050_LatLon0.15_PT120H.grib2 2026-04-30 16:25 570K
20260430T12Z_MSC_GDPS_GeopotentialHeight_IsbL-0100_LatLon0.15_PT120H.grib2 2026-04-30 16:25 609K
20260430T12Z_MSC_GDPS_GeopotentialHeight_IsbL-0150_LatLon0.15_PT120H.grib2 2026-04-30 16:25 629K
20260430T12Z_MSC_GDPS_GeopotentialHeight_IsbL-0175_LatLon0.15_PT120H.grib2 2026-04-30 16:25 632K
20260430T12Z_MSC_GDPS_GeopotentialHeight_IsbL-0200_LatLon0.15_PT120H.grib2 2026-04-30 16:25 638K
20260430T12Z_MSC_GDPS_GeopotentialHeight_IsbL-0225_LatLon0.15_PT120H.grib2 2026-04-30 16:25 642K
20260430T12Z_MSC_GDPS_GeopotentialHeight_IsbL-0250_LatLon0.15_PT120H.grib2 2026-04-30 16:25 646K
20260430T12Z_MSC_GDPS_GeopotentialHeight_IsbL-0275_LatLon0.15_PT120H.grib2 2026-04-30 16:25 644K
20260430T12Z_MSC_GDPS_GeopotentialHeight_IsbL-0300_LatLon0.15_PT120H.grib2 2026-04-30 16:25 637K
20260430T12Z_MSC_GDPS_GeopotentialHeight_IsbL-0350_LatLon0.15_PT120H.grib2 2026-04-30 16:25 634K
20260430T12Z_MSC_GDPS_GeopotentialHeight_IsbL-0400_LatLon0.15_PT120H.grib2 2026-04-30 16:25 624K
20260430T12Z_MSC_GDPS_GeopotentialHeight_IsbL-0450_LatLon0.15_PT120H.grib2 2026-04-30 16:25 613K
20260430T12Z_MSC_GDPS_GeopotentialHeight_IsbL-0500_LatLon0.15_PT120H.grib2 2026-04-30 16:25 536K
20260430T12Z_MSC_GDPS_GeopotentialHeight_IsbL-0550_LatLon0.15_PT120H.grib2 2026-04-30 16:25 527K
20260430T12Z_MSC_GDPS_GeopotentialHeight_IsbL-0600_LatLon0.15_PT120H.grib2 2026-04-30 16:25 696K
20260430T12Z_MSC_GDPS_GeopotentialHeight_IsbL-0650_LatLon0.15_PT120H.grib2 2026-04-30 16:25 695K
20260430T12Z_MSC_GDPS_GeopotentialHeight_IsbL-0700_LatLon0.15_PT120H.grib2 2026-04-30 16:25 696K
20260430T12Z_MSC_GDPS_GeopotentialHeight_IsbL-0750_LatLon0.15_PT120H.grib2 2026-04-30 16:25 694K
20260430T12Z_MSC_GDPS_GeopotentialHeight_IsbL-0800_LatLon0.15_PT120H.grib2 2026-04-30 16:25 708K
20260430T12Z_MSC_GDPS_GeopotentialHeight_IsbL-0850_LatLon0.15_PT120H.grib2 2026-04-30 16:25 714K
20260430T12Z_MSC_GDPS_GeopotentialHeight_IsbL-0875_LatLon0.15_PT120H.grib2 2026-04-30 16:25 720K
20260430T12Z_MSC_GDPS_GeopotentialHeight_IsbL-0900_LatLon0.15_PT120H.grib2 2026-04-30 16:25 728K
20260430T12Z_MSC_GDPS_GeopotentialHeight_IsbL-0925_LatLon0.15_PT120H.grib2 2026-04-30 16:25 732K
20260430T12Z_MSC_GDPS_GeopotentialHeight_IsbL-0950_LatLon0.15_PT120H.grib2 2026-04-30 16:25 741K
20260430T12Z_MSC_GDPS_GeopotentialHeight_IsbL-0970_LatLon0.15_PT120H.grib2 2026-04-30 16:25 752K
20260430T12Z_MSC_GDPS_GeopotentialHeight_IsbL-0985_LatLon0.15_PT120H.grib2 2026-04-30 16:25 767K
20260430T12Z_MSC_GDPS_GeopotentialHeight_IsbL-1000_LatLon0.15_PT120H.grib2 2026-04-30 16:25 787K
20260430T12Z_MSC_GDPS_GeopotentialHeight_IsbL-1015_LatLon0.15_PT120H.grib2 2026-04-30 16:25 808K
20260430T12Z_MSC_GDPS_Humidex_Sfc_LatLon0.15_PT120H.grib2 2026-04-30 16:25 5.3M
20260430T12Z_MSC_GDPS_IcePellets-Accum12h_Sfc_LatLon0.15_PT120H.grib2 2026-04-30 16:25 36K
20260430T12Z_MSC_GDPS_IcePellets-Accum1h_Sfc_LatLon0.15_PT120H.grib2 2026-04-30 16:25 17K
20260430T12Z_MSC_GDPS_IcePellets-Accum24h_Sfc_LatLon0.15_PT120H.grib2 2026-04-30 16:25 48K
20260430T12Z_MSC_GDPS_IcePellets-Accum3h_Sfc_LatLon0.15_PT120H.grib2 2026-04-30 16:25 17K
20260430T12Z_MSC_GDPS_IcePellets-Accum6h_Sfc_LatLon0.15_PT120H.grib2 2026-04-30 16:25 25K
20260430T12Z_MSC_GDPS_IcePellets-Accum_Sfc_LatLon0.15_PT120H.grib2 2026-04-30 16:25 113K
20260430T12Z_MSC_GDPS_KIndex_Sfc_LatLon0.15_PT120H.grib2 2026-04-30 16:25 6.5M
20260430T12Z_MSC_GDPS_LatentHeatNetFlux_Sfc_LatLon0.15_PT120H.grib2 2026-04-30 16:25 562K
20260430T12Z_MSC_GDPS_LiftedIndex-MU-VT_IsbL-0500_LatLon0.15_PT120H.grib2 2026-04-30 16:25 5.4M
20260430T12Z_MSC_GDPS_NetLongwaveRadiationFlux-Accum_Sfc_LatLon0.15_PT120H.grib2 2026-04-30 16:25 1.0M
20260430T12Z_MSC_GDPS_NetShortwaveRadiationFlux-Accum_Sfc_LatLon0.15_PT120H.grib2 2026-04-30 16:25 1.0M
20260430T12Z_MSC_GDPS_O3MixingRatio_Sfc_LatLon0.15_PT120H.grib2 2026-04-30 16:45 2.2M
20260430T12Z_MSC_GDPS_O3_EAtm_LatLon0.15_PT120H.grib2 2026-04-30 16:45 2.4M
20260430T12Z_MSC_GDPS_PlanetaryBoundaryLayerHeight_Sfc_LatLon0.15_PT120H.grib2 2026-04-30 16:25 2.5M
20260430T12Z_MSC_GDPS_Precip-Accum12h_Sfc_LatLon0.15_PT120H.grib2 2026-04-30 16:25 4.3M
20260430T12Z_MSC_GDPS_Precip-Accum1h_Sfc_LatLon0.15_PT120H.grib2 2026-04-30 16:25 3.3M
20260430T12Z_MSC_GDPS_Precip-Accum24h_Sfc_LatLon0.15_PT120H.grib2 2026-04-30 16:25 4.5M
20260430T12Z_MSC_GDPS_Precip-Accum3h_Sfc_LatLon0.15_PT120H.grib2 2026-04-30 16:25 3.5M
20260430T12Z_MSC_GDPS_Precip-Accum6h_Sfc_LatLon0.15_PT120H.grib2 2026-04-30 16:25 3.9M
20260430T12Z_MSC_GDPS_Precip-Accum_Sfc_LatLon0.15_PT120H.grib2 2026-04-30 16:25 5.1M
20260430T12Z_MSC_GDPS_PrecipRate_Sfc_LatLon0.15_PT120H.grib2 2026-04-30 16:25 3.0M
20260430T12Z_MSC_GDPS_PrecipType-Instant_Sfc_LatLon0.15_PT120H.grib2 2026-04-30 16:25 1.6M
20260430T12Z_MSC_GDPS_Pressure_MSL_LatLon0.15_PT120H.grib2 2026-04-30 16:25 826K
20260430T12Z_MSC_GDPS_Pressure_PVU-1.5_LatLon0.15_PT120H.grib2 2026-04-30 16:25 5.8M
20260430T12Z_MSC_GDPS_Pressure_PVU-1_LatLon0.15_PT120H.grib2 2026-04-30 16:25 6.0M
20260430T12Z_MSC_GDPS_Pressure_PVU-2_LatLon0.15_PT120H.grib2 2026-04-30 16:25 6.0M
20260430T12Z_MSC_GDPS_Pressure_Sfc_LatLon0.15_PT120H.grib2 2026-04-30 16:25 1.1M
20260430T12Z_MSC_GDPS_RadiativeTemp_Sfc_LatLon0.15_PT120H.grib2 2026-04-30 16:25 498K
20260430T12Z_MSC_GDPS_Rain-Accum12h_Sfc_LatLon0.15_PT120H.grib2 2026-04-30 16:25 2.9M
20260430T12Z_MSC_GDPS_Rain-Accum1h_Sfc_LatLon0.15_PT120H.grib2 2026-04-30 16:25 1.7M
20260430T12Z_MSC_GDPS_Rain-Accum24h_Sfc_LatLon0.15_PT120H.grib2 2026-04-30 16:25 3.2M
20260430T12Z_MSC_GDPS_Rain-Accum3h_Sfc_LatLon0.15_PT120H.grib2 2026-04-30 16:25 1.9M
20260430T12Z_MSC_GDPS_Rain-Accum6h_Sfc_LatLon0.15_PT120H.grib2 2026-04-30 16:25 2.5M
20260430T12Z_MSC_GDPS_Rain-Accum_Sfc_LatLon0.15_PT120H.grib2 2026-04-30 16:25 4.0M
20260430T12Z_MSC_GDPS_RelativeHumidity_AGL-2m_LatLon0.15_PT120H.grib2 2026-04-30 16:25 1.1M
20260430T12Z_MSC_GDPS_RelativeHumidity_IsbL-0010_LatLon0.15_PT120H.grib2 2026-04-30 16:25 195K
20260430T12Z_MSC_GDPS_RelativeHumidity_IsbL-0020_LatLon0.15_PT120H.grib2 2026-04-30 16:25 162K
20260430T12Z_MSC_GDPS_RelativeHumidity_IsbL-0030_LatLon0.15_PT120H.grib2 2026-04-30 16:25 306K
20260430T12Z_MSC_GDPS_RelativeHumidity_IsbL-0050_LatLon0.15_PT120H.grib2 2026-04-30 16:25 425K
20260430T12Z_MSC_GDPS_RelativeHumidity_IsbL-0100_LatLon0.15_PT120H.grib2 2026-04-30 16:25 500K
20260430T12Z_MSC_GDPS_RelativeHumidity_IsbL-0150_LatLon0.15_PT120H.grib2 2026-04-30 16:25 661K
20260430T12Z_MSC_GDPS_RelativeHumidity_IsbL-0175_LatLon0.15_PT120H.grib2 2026-04-30 16:25 791K
20260430T12Z_MSC_GDPS_RelativeHumidity_IsbL-0200_LatLon0.15_PT120H.grib2 2026-04-30 16:25 705K
20260430T12Z_MSC_GDPS_RelativeHumidity_IsbL-0225_LatLon0.15_PT120H.grib2 2026-04-30 16:25 785K
20260430T12Z_MSC_GDPS_RelativeHumidity_IsbL-0250_LatLon0.15_PT120H.grib2 2026-04-30 16:25 857K
20260430T12Z_MSC_GDPS_RelativeHumidity_IsbL-0275_LatLon0.15_PT120H.grib2 2026-04-30 16:25 881K
20260430T12Z_MSC_GDPS_RelativeHumidity_IsbL-0300_LatLon0.15_PT120H.grib2 2026-04-30 16:25 925K
20260430T12Z_MSC_GDPS_RelativeHumidity_IsbL-0350_LatLon0.15_PT120H.grib2 2026-04-30 16:25 947K
20260430T12Z_MSC_GDPS_RelativeHumidity_IsbL-0400_LatLon0.15_PT120H.grib2 2026-04-30 16:25 971K
20260430T12Z_MSC_GDPS_RelativeHumidity_IsbL-0450_LatLon0.15_PT120H.grib2 2026-04-30 16:25 1.0M
20260430T12Z_MSC_GDPS_RelativeHumidity_IsbL-0500_LatLon0.15_PT120H.grib2 2026-04-30 16:25 1.0M
20260430T12Z_MSC_GDPS_RelativeHumidity_IsbL-0550_LatLon0.15_PT120H.grib2 2026-04-30 16:25 1.1M
20260430T12Z_MSC_GDPS_RelativeHumidity_IsbL-0600_LatLon0.15_PT120H.grib2 2026-04-30 16:25 1.1M
20260430T12Z_MSC_GDPS_RelativeHumidity_IsbL-0650_LatLon0.15_PT120H.grib2 2026-04-30 16:25 1.1M
20260430T12Z_MSC_GDPS_RelativeHumidity_IsbL-0700_LatLon0.15_PT120H.grib2 2026-04-30 16:25 1.1M
20260430T12Z_MSC_GDPS_RelativeHumidity_IsbL-0750_LatLon0.15_PT120H.grib2 2026-04-30 16:25 1.2M
20260430T12Z_MSC_GDPS_RelativeHumidity_IsbL-0800_LatLon0.15_PT120H.grib2 2026-04-30 16:25 1.3M
20260430T12Z_MSC_GDPS_RelativeHumidity_IsbL-0850_LatLon0.15_PT120H.grib2 2026-04-30 16:25 1.3M
20260430T12Z_MSC_GDPS_RelativeHumidity_IsbL-0875_LatLon0.15_PT120H.grib2 2026-04-30 16:25 1.3M
20260430T12Z_MSC_GDPS_RelativeHumidity_IsbL-0900_LatLon0.15_PT120H.grib2 2026-04-30 16:25 1.2M
20260430T12Z_MSC_GDPS_RelativeHumidity_IsbL-0925_LatLon0.15_PT120H.grib2 2026-04-30 16:25 1.2M
20260430T12Z_MSC_GDPS_RelativeHumidity_IsbL-0950_LatLon0.15_PT120H.grib2 2026-04-30 16:25 1.2M
20260430T12Z_MSC_GDPS_RelativeHumidity_IsbL-0970_LatLon0.15_PT120H.grib2 2026-04-30 16:25 1.2M
20260430T12Z_MSC_GDPS_RelativeHumidity_IsbL-0985_LatLon0.15_PT120H.grib2 2026-04-30 16:25 1.1M
20260430T12Z_MSC_GDPS_RelativeHumidity_IsbL-1000_LatLon0.15_PT120H.grib2 2026-04-30 16:25 1.1M
20260430T12Z_MSC_GDPS_RelativeHumidity_IsbL-1015_LatLon0.15_PT120H.grib2 2026-04-30 16:25 1.0M
20260430T12Z_MSC_GDPS_RelativeVorticity_IsbL-0200_LatLon0.15_PT120H.grib2 2026-04-30 16:25 1.5M
20260430T12Z_MSC_GDPS_RelativeVorticity_IsbL-0250_LatLon0.15_PT120H.grib2 2026-04-30 16:25 1.3M
20260430T12Z_MSC_GDPS_RelativeVorticity_IsbL-0500_LatLon0.15_PT120H.grib2 2026-04-30 16:25 1.5M
20260430T12Z_MSC_GDPS_RelativeVorticity_IsbL-0700_LatLon0.15_PT120H.grib2 2026-04-30 16:25 1.3M
20260430T12Z_MSC_GDPS_RelativeVorticity_IsbL-0850_LatLon0.15_PT120H.grib2 2026-04-30 16:25 1.6M
20260430T12Z_MSC_GDPS_Runoff-Accum_Sfc_LatLon0.15_PT120H.grib2 2026-04-30 16:25 141K
20260430T12Z_MSC_GDPS_SensibleHeatNetFlux_Sfc_LatLon0.15_PT120H.grib2 2026-04-30 16:25 661K
20260430T12Z_MSC_GDPS_ShowalterIndex_IsbL-0500_LatLon0.15_PT120H.grib2 2026-04-30 16:25 6.2M
20260430T12Z_MSC_GDPS_Snow-Accum12h_Sfc_LatLon0.15_PT120H.grib2 2026-04-30 16:25 1.5M
20260430T12Z_MSC_GDPS_Snow-Accum1h_Sfc_LatLon0.15_PT120H.grib2 2026-04-30 16:25 1.3M
20260430T12Z_MSC_GDPS_Snow-Accum24h_Sfc_LatLon0.15_PT120H.grib2 2026-04-30 16:25 1.7M
20260430T12Z_MSC_GDPS_Snow-Accum3h_Sfc_LatLon0.15_PT120H.grib2 2026-04-30 16:25 1.2M
20260430T12Z_MSC_GDPS_Snow-Accum6h_Sfc_LatLon0.15_PT120H.grib2 2026-04-30 16:25 1.5M
20260430T12Z_MSC_GDPS_Snow-Accum_Sfc_LatLon0.15_PT120H.grib2 2026-04-30 16:25 2.1M
20260430T12Z_MSC_GDPS_SnowDensity_Sfc_LatLon0.15_PT120H.grib2 2026-04-30 16:25 263K
20260430T12Z_MSC_GDPS_SnowDepth_Sfc_LatLon0.15_PT120H.grib2 2026-04-30 16:25 1.7M
20260430T12Z_MSC_GDPS_SoilTemp_DBS-0to10cm_LatLon0.15_PT120H.grib2 2026-04-30 16:25 513K
20260430T12Z_MSC_GDPS_SoilTemp_Sfc_LatLon0.15_PT120H.grib2 2026-04-30 16:25 575K
20260430T12Z_MSC_GDPS_SoilVolumetricIceContent_Sfc_LatLon0.15_PT120H.grib2 2026-04-30 16:25 192K
20260430T12Z_MSC_GDPS_SoilVolumetricWaterContent_DBS-0to10cm_LatLon0.15_PT120H.grib2 2026-04-30 16:25 591K
20260430T12Z_MSC_GDPS_SoilVolumetricWaterContent_DBS-0to1cm_LatLon0.15_PT120H.grib2 2026-04-30 16:25 647K
20260430T12Z_MSC_GDPS_SpecificHumidity_AGL-120m_LatLon0.15_PT120H.grib2 2026-04-30 16:25 1.1M
20260430T12Z_MSC_GDPS_SpecificHumidity_AGL-2m_LatLon0.15_PT120H.grib2 2026-04-30 16:25 1.2M
20260430T12Z_MSC_GDPS_SpecificHumidity_AGL-40m_LatLon0.15_PT120H.grib2 2026-04-30 16:25 1.1M
20260430T12Z_MSC_GDPS_SpecificHumidity_AGL-80m_LatLon0.15_PT120H.grib2 2026-04-30 16:25 1.1M
20260430T12Z_MSC_GDPS_SpecificHumidity_IsbL-0001_LatLon0.15_PT120H.grib2 2026-04-30 16:25 1.3M
20260430T12Z_MSC_GDPS_SpecificHumidity_IsbL-0005_LatLon0.15_PT120H.grib2 2026-04-30 16:25 1.1M
20260430T12Z_MSC_GDPS_SpecificHumidity_IsbL-0010_LatLon0.15_PT120H.grib2 2026-04-30 16:25 1.2M
20260430T12Z_MSC_GDPS_SpecificHumidity_IsbL-0020_LatLon0.15_PT120H.grib2 2026-04-30 16:25 1.3M
20260430T12Z_MSC_GDPS_SpecificHumidity_IsbL-0030_LatLon0.15_PT120H.grib2 2026-04-30 16:25 1.6M
20260430T12Z_MSC_GDPS_SpecificHumidity_IsbL-0050_LatLon0.15_PT120H.grib2 2026-04-30 16:25 1.6M
20260430T12Z_MSC_GDPS_SpecificHumidity_IsbL-0100_LatLon0.15_PT120H.grib2 2026-04-30 16:25 1.3M
20260430T12Z_MSC_GDPS_SpecificHumidity_IsbL-0150_LatLon0.15_PT120H.grib2 2026-04-30 16:25 1.3M
20260430T12Z_MSC_GDPS_SpecificHumidity_IsbL-0175_LatLon0.15_PT120H.grib2 2026-04-30 16:25 1.3M
20260430T12Z_MSC_GDPS_SpecificHumidity_IsbL-0200_LatLon0.15_PT120H.grib2 2026-04-30 16:25 1.3M
20260430T12Z_MSC_GDPS_SpecificHumidity_IsbL-0225_LatLon0.15_PT120H.grib2 2026-04-30 16:25 1.3M
20260430T12Z_MSC_GDPS_SpecificHumidity_IsbL-0250_LatLon0.15_PT120H.grib2 2026-04-30 16:25 1.4M
20260430T12Z_MSC_GDPS_SpecificHumidity_IsbL-0275_LatLon0.15_PT120H.grib2 2026-04-30 16:25 1.3M
20260430T12Z_MSC_GDPS_SpecificHumidity_IsbL-0300_LatLon0.15_PT120H.grib2 2026-04-30 16:25 1.2M
20260430T12Z_MSC_GDPS_SpecificHumidity_IsbL-0350_LatLon0.15_PT120H.grib2 2026-04-30 16:25 1.2M
20260430T12Z_MSC_GDPS_SpecificHumidity_IsbL-0400_LatLon0.15_PT120H.grib2 2026-04-30 16:25 1.5M
20260430T12Z_MSC_GDPS_SpecificHumidity_IsbL-0450_LatLon0.15_PT120H.grib2 2026-04-30 16:25 1.6M
20260430T12Z_MSC_GDPS_SpecificHumidity_IsbL-0500_LatLon0.15_PT120H.grib2 2026-04-30 16:25 1.4M
20260430T12Z_MSC_GDPS_SpecificHumidity_IsbL-0550_LatLon0.15_PT120H.grib2 2026-04-30 16:25 1.6M
20260430T12Z_MSC_GDPS_SpecificHumidity_IsbL-0600_LatLon0.15_PT120H.grib2 2026-04-30 16:25 1.7M
20260430T12Z_MSC_GDPS_SpecificHumidity_IsbL-0650_LatLon0.15_PT120H.grib2 2026-04-30 16:25 1.5M
20260430T12Z_MSC_GDPS_SpecificHumidity_IsbL-0700_LatLon0.15_PT120H.grib2 2026-04-30 16:25 1.6M
20260430T12Z_MSC_GDPS_SpecificHumidity_IsbL-0750_LatLon0.15_PT120H.grib2 2026-04-30 16:25 1.7M
20260430T12Z_MSC_GDPS_SpecificHumidity_IsbL-0800_LatLon0.15_PT120H.grib2 2026-04-30 16:25 1.9M
20260430T12Z_MSC_GDPS_SpecificHumidity_IsbL-0850_LatLon0.15_PT120H.grib2 2026-04-30 16:25 1.9M
20260430T12Z_MSC_GDPS_SpecificHumidity_IsbL-0875_LatLon0.15_PT120H.grib2 2026-04-30 16:25 1.9M
20260430T12Z_MSC_GDPS_SpecificHumidity_IsbL-0900_LatLon0.15_PT120H.grib2 2026-04-30 16:25 1.9M
20260430T12Z_MSC_GDPS_SpecificHumidity_IsbL-0925_LatLon0.15_PT120H.grib2 2026-04-30 16:25 1.6M
20260430T12Z_MSC_GDPS_SpecificHumidity_IsbL-0950_LatLon0.15_PT120H.grib2 2026-04-30 16:25 1.6M
20260430T12Z_MSC_GDPS_SpecificHumidity_IsbL-0970_LatLon0.15_PT120H.grib2 2026-04-30 16:25 1.5M
20260430T12Z_MSC_GDPS_SpecificHumidity_IsbL-0985_LatLon0.15_PT120H.grib2 2026-04-30 16:25 1.5M
20260430T12Z_MSC_GDPS_SpecificHumidity_IsbL-1000_LatLon0.15_PT120H.grib2 2026-04-30 16:25 1.5M
20260430T12Z_MSC_GDPS_SpecificHumidity_IsbL-1015_LatLon0.15_PT120H.grib2 2026-04-30 16:25 1.5M
20260430T12Z_MSC_GDPS_SpecificHumidity_Sfc_LatLon0.15_PT120H.grib2 2026-04-30 16:25 682K
20260430T12Z_MSC_GDPS_Thickness_IsbL-0850to0700_LatLon0.15_PT120H.grib2 2026-04-30 16:25 473K
20260430T12Z_MSC_GDPS_Thickness_IsbL-1000to0500_LatLon0.15_PT120H.grib2 2026-04-30 16:25 377K
20260430T12Z_MSC_GDPS_Thickness_IsbL-1000to0850_LatLon0.15_PT120H.grib2 2026-04-30 16:25 492K
20260430T12Z_MSC_GDPS_TotalCloudCover_Sfc_LatLon0.15_PT120H.grib2 2026-04-30 16:25 828K
20260430T12Z_MSC_GDPS_TotalTotalsIndex_Sfc_LatLon0.15_PT120H.grib2 2026-04-30 16:25 6.2M
20260430T12Z_MSC_GDPS_UVIndex-ClearSky_Sfc_LatLon0.15_PT120H.grib2 2026-04-30 16:45 1.0M
20260430T12Z_MSC_GDPS_UVIndex_Sfc_LatLon0.15_PT120H.grib2 2026-04-30 16:45 1.5M
20260430T12Z_MSC_GDPS_UpwardLongwaveRadiationFlux_NTAtm_LatLon0.15_PT120H.grib2 2026-04-30 16:25 837K
20260430T12Z_MSC_GDPS_VerticalVelocity_IsbL-0200_LatLon0.15_PT120H.grib2 2026-04-30 16:25 1.2M
20260430T12Z_MSC_GDPS_VerticalVelocity_IsbL-0250_LatLon0.15_PT120H.grib2 2026-04-30 16:25 1.0M
20260430T12Z_MSC_GDPS_VerticalVelocity_IsbL-0500_LatLon0.15_PT120H.grib2 2026-04-30 16:25 1.3M
20260430T12Z_MSC_GDPS_VerticalVelocity_IsbL-0600_LatLon0.15_PT120H.grib2 2026-04-30 16:25 1.4M
20260430T12Z_MSC_GDPS_VerticalVelocity_IsbL-0700_LatLon0.15_PT120H.grib2 2026-04-30 16:25 1.2M
20260430T12Z_MSC_GDPS_VerticalVelocity_IsbL-0850_LatLon0.15_PT120H.grib2 2026-04-30 16:25 1.4M
20260430T12Z_MSC_GDPS_WindChill_Sfc_LatLon0.15_PT120H.grib2 2026-04-30 16:25 5.3M
20260430T12Z_MSC_GDPS_WindDir_AGL-10m_LatLon0.15_PT120H.grib2 2026-04-30 16:25 1.3M
20260430T12Z_MSC_GDPS_WindDir_AGL-120m_LatLon0.15_PT120H.grib2 2026-04-30 16:25 1.3M
20260430T12Z_MSC_GDPS_WindDir_AGL-40m_LatLon0.15_PT120H.grib2 2026-04-30 16:25 1.4M
20260430T12Z_MSC_GDPS_WindDir_AGL-80m_LatLon0.15_PT120H.grib2 2026-04-30 16:25 1.3M
20260430T12Z_MSC_GDPS_WindDir_IsbL-0001_LatLon0.15_PT120H.grib2 2026-04-30 16:25 682K
20260430T12Z_MSC_GDPS_WindDir_IsbL-0005_LatLon0.15_PT120H.grib2 2026-04-30 16:25 807K
20260430T12Z_MSC_GDPS_WindDir_IsbL-0010_LatLon0.15_PT120H.grib2 2026-04-30 16:25 848K
20260430T12Z_MSC_GDPS_WindDir_IsbL-0020_LatLon0.15_PT120H.grib2 2026-04-30 16:25 955K
20260430T12Z_MSC_GDPS_WindDir_IsbL-0030_LatLon0.15_PT120H.grib2 2026-04-30 16:25 940K
20260430T12Z_MSC_GDPS_WindDir_IsbL-0050_LatLon0.15_PT120H.grib2 2026-04-30 16:25 948K
20260430T12Z_MSC_GDPS_WindDir_IsbL-0100_LatLon0.15_PT120H.grib2 2026-04-30 16:25 1.0M
20260430T12Z_MSC_GDPS_WindDir_IsbL-0150_LatLon0.15_PT120H.grib2 2026-04-30 16:25 1.0M
20260430T12Z_MSC_GDPS_WindDir_IsbL-0175_LatLon0.15_PT120H.grib2 2026-04-30 16:25 1.0M
20260430T12Z_MSC_GDPS_WindDir_IsbL-0200_LatLon0.15_PT120H.grib2 2026-04-30 16:25 1.1M
20260430T12Z_MSC_GDPS_WindDir_IsbL-0225_LatLon0.15_PT120H.grib2 2026-04-30 16:25 1.1M
20260430T12Z_MSC_GDPS_WindDir_IsbL-0250_LatLon0.15_PT120H.grib2 2026-04-30 16:25 1.1M
20260430T12Z_MSC_GDPS_WindDir_IsbL-0275_LatLon0.15_PT120H.grib2 2026-04-30 16:25 1.2M
20260430T12Z_MSC_GDPS_WindDir_IsbL-0300_LatLon0.15_PT120H.grib2 2026-04-30 16:25 1.2M
20260430T12Z_MSC_GDPS_WindDir_IsbL-0350_LatLon0.15_PT120H.grib2 2026-04-30 16:25 1.2M
20260430T12Z_MSC_GDPS_WindDir_IsbL-0400_LatLon0.15_PT120H.grib2 2026-04-30 16:25 1.3M
20260430T12Z_MSC_GDPS_WindDir_IsbL-0450_LatLon0.15_PT120H.grib2 2026-04-30 16:25 1.3M
20260430T12Z_MSC_GDPS_WindDir_IsbL-0500_LatLon0.15_PT120H.grib2 2026-04-30 16:25 1.3M
20260430T12Z_MSC_GDPS_WindDir_IsbL-0550_LatLon0.15_PT120H.grib2 2026-04-30 16:25 1.4M
20260430T12Z_MSC_GDPS_WindDir_IsbL-0600_LatLon0.15_PT120H.grib2 2026-04-30 16:25 1.4M
20260430T12Z_MSC_GDPS_WindDir_IsbL-0650_LatLon0.15_PT120H.grib2 2026-04-30 16:25 1.5M
20260430T12Z_MSC_GDPS_WindDir_IsbL-0700_LatLon0.15_PT120H.grib2 2026-04-30 16:25 1.6M
20260430T12Z_MSC_GDPS_WindDir_IsbL-0750_LatLon0.15_PT120H.grib2 2026-04-30 16:25 1.7M
20260430T12Z_MSC_GDPS_WindDir_IsbL-0800_LatLon0.15_PT120H.grib2 2026-04-30 16:25 1.8M
20260430T12Z_MSC_GDPS_WindDir_IsbL-0850_LatLon0.15_PT120H.grib2 2026-04-30 16:25 1.9M
20260430T12Z_MSC_GDPS_WindDir_IsbL-0875_LatLon0.15_PT120H.grib2 2026-04-30 16:25 1.9M
20260430T12Z_MSC_GDPS_WindDir_IsbL-0900_LatLon0.15_PT120H.grib2 2026-04-30 16:25 1.9M
20260430T12Z_MSC_GDPS_WindDir_IsbL-0925_LatLon0.15_PT120H.grib2 2026-04-30 16:25 2.0M
20260430T12Z_MSC_GDPS_WindDir_IsbL-0950_LatLon0.15_PT120H.grib2 2026-04-30 16:25 1.9M
20260430T12Z_MSC_GDPS_WindDir_IsbL-0970_LatLon0.15_PT120H.grib2 2026-04-30 16:25 2.0M
20260430T12Z_MSC_GDPS_WindDir_IsbL-0985_LatLon0.15_PT120H.grib2 2026-04-30 16:25 2.0M
20260430T12Z_MSC_GDPS_WindDir_IsbL-1000_LatLon0.15_PT120H.grib2 2026-04-30 16:25 2.0M
20260430T12Z_MSC_GDPS_WindDir_IsbL-1015_LatLon0.15_PT120H.grib2 2026-04-30 16:25 2.0M
20260430T12Z_MSC_GDPS_WindGust-Max_AGL-10m_LatLon0.15_PT120H.grib2 2026-04-30 16:25 1.8M
20260430T12Z_MSC_GDPS_WindGust-Min_AGL-10m_LatLon0.15_PT120H.grib2 2026-04-30 16:25 2.1M
20260430T12Z_MSC_GDPS_WindGust_AGL-10m_LatLon0.15_PT120H.grib2 2026-04-30 16:25 2.1M
20260430T12Z_MSC_GDPS_WindSpeed_AGL-10m_LatLon0.15_PT120H.grib2 2026-04-30 16:25 1.1M
20260430T12Z_MSC_GDPS_WindSpeed_AGL-120m_LatLon0.15_PT120H.grib2 2026-04-30 16:25 1.2M
20260430T12Z_MSC_GDPS_WindSpeed_AGL-40m_LatLon0.15_PT120H.grib2 2026-04-30 16:25 1.2M
20260430T12Z_MSC_GDPS_WindSpeed_AGL-80m_LatLon0.15_PT120H.grib2 2026-04-30 16:25 1.2M
20260430T12Z_MSC_GDPS_WindSpeed_IsbL-0001_LatLon0.15_PT120H.grib2 2026-04-30 16:25 640K
20260430T12Z_MSC_GDPS_WindSpeed_IsbL-0005_LatLon0.15_PT120H.grib2 2026-04-30 16:25 688K
20260430T12Z_MSC_GDPS_WindSpeed_IsbL-0010_LatLon0.15_PT120H.grib2 2026-04-30 16:25 626K
20260430T12Z_MSC_GDPS_WindSpeed_IsbL-0020_LatLon0.15_PT120H.grib2 2026-04-30 16:25 857K
20260430T12Z_MSC_GDPS_WindSpeed_IsbL-0030_LatLon0.15_PT120H.grib2 2026-04-30 16:25 866K
20260430T12Z_MSC_GDPS_WindSpeed_IsbL-0050_LatLon0.15_PT120H.grib2 2026-04-30 16:25 1.0M
20260430T12Z_MSC_GDPS_WindSpeed_IsbL-0100_LatLon0.15_PT120H.grib2 2026-04-30 16:25 865K
20260430T12Z_MSC_GDPS_WindSpeed_IsbL-0150_LatLon0.15_PT120H.grib2 2026-04-30 16:25 1.0M
20260430T12Z_MSC_GDPS_WindSpeed_IsbL-0175_LatLon0.15_PT120H.grib2 2026-04-30 16:25 1.0M
20260430T12Z_MSC_GDPS_WindSpeed_IsbL-0200_LatLon0.15_PT120H.grib2 2026-04-30 16:25 1.1M
20260430T12Z_MSC_GDPS_WindSpeed_IsbL-0225_LatLon0.15_PT120H.grib2 2026-04-30 16:25 1.1M
20260430T12Z_MSC_GDPS_WindSpeed_IsbL-0250_LatLon0.15_PT120H.grib2 2026-04-30 16:25 1.1M
20260430T12Z_MSC_GDPS_WindSpeed_IsbL-0275_LatLon0.15_PT120H.grib2 2026-04-30 16:25 1.1M
20260430T12Z_MSC_GDPS_WindSpeed_IsbL-0300_LatLon0.15_PT120H.grib2 2026-04-30 16:25 1.1M
20260430T12Z_MSC_GDPS_WindSpeed_IsbL-0350_LatLon0.15_PT120H.grib2 2026-04-30 16:25 1.1M
20260430T12Z_MSC_GDPS_WindSpeed_IsbL-0400_LatLon0.15_PT120H.grib2 2026-04-30 16:25 1.1M
20260430T12Z_MSC_GDPS_WindSpeed_IsbL-0450_LatLon0.15_PT120H.grib2 2026-04-30 16:25 1.1M
20260430T12Z_MSC_GDPS_WindSpeed_IsbL-0500_LatLon0.15_PT120H.grib2 2026-04-30 16:25 1.1M
20260430T12Z_MSC_GDPS_WindSpeed_IsbL-0550_LatLon0.15_PT120H.grib2 2026-04-30 16:25 1.1M
20260430T12Z_MSC_GDPS_WindSpeed_IsbL-0600_LatLon0.15_PT120H.grib2 2026-04-30 16:25 1.1M
20260430T12Z_MSC_GDPS_WindSpeed_IsbL-0650_LatLon0.15_PT120H.grib2 2026-04-30 16:25 1.4M
20260430T12Z_MSC_GDPS_WindSpeed_IsbL-0700_LatLon0.15_PT120H.grib2 2026-04-30 16:25 1.5M
20260430T12Z_MSC_GDPS_WindSpeed_IsbL-0750_LatLon0.15_PT120H.grib2 2026-04-30 16:25 1.6M
20260430T12Z_MSC_GDPS_WindSpeed_IsbL-0800_LatLon0.15_PT120H.grib2 2026-04-30 16:25 1.7M
20260430T12Z_MSC_GDPS_WindSpeed_IsbL-0850_LatLon0.15_PT120H.grib2 2026-04-30 16:25 1.4M
20260430T12Z_MSC_GDPS_WindSpeed_IsbL-0875_LatLon0.15_PT120H.grib2 2026-04-30 16:25 1.5M
20260430T12Z_MSC_GDPS_WindSpeed_IsbL-0900_LatLon0.15_PT120H.grib2 2026-04-30 16:25 1.5M
20260430T12Z_MSC_GDPS_WindSpeed_IsbL-0925_LatLon0.15_PT120H.grib2 2026-04-30 16:25 1.8M
20260430T12Z_MSC_GDPS_WindSpeed_IsbL-0950_LatLon0.15_PT120H.grib2 2026-04-30 16:25 1.8M
20260430T12Z_MSC_GDPS_WindSpeed_IsbL-0970_LatLon0.15_PT120H.grib2 2026-04-30 16:25 1.8M
20260430T12Z_MSC_GDPS_WindSpeed_IsbL-0985_LatLon0.15_PT120H.grib2 2026-04-30 16:25 1.9M
20260430T12Z_MSC_GDPS_WindSpeed_IsbL-1000_LatLon0.15_PT120H.grib2 2026-04-30 16:25 1.9M
20260430T12Z_MSC_GDPS_WindSpeed_IsbL-1015_LatLon0.15_PT120H.grib2 2026-04-30 16:25 1.8M
20260430T12Z_MSC_GDPS_WindU_AGL-10m_LatLon0.15_PT120H.grib2 2026-04-30 16:25 1.3M
20260430T12Z_MSC_GDPS_WindU_AGL-120m_LatLon0.15_PT120H.grib2 2026-04-30 16:25 1.0M
20260430T12Z_MSC_GDPS_WindU_AGL-40m_LatLon0.15_PT120H.grib2 2026-04-30 16:25 1.0M
20260430T12Z_MSC_GDPS_WindU_AGL-80m_LatLon0.15_PT120H.grib2 2026-04-30 16:25 1.0M
20260430T12Z_MSC_GDPS_WindU_IsbL-0001_LatLon0.15_PT120H.grib2 2026-04-30 16:25 500K
20260430T12Z_MSC_GDPS_WindU_IsbL-0005_LatLon0.15_PT120H.grib2 2026-04-30 16:25 687K
20260430T12Z_MSC_GDPS_WindU_IsbL-0010_LatLon0.15_PT120H.grib2 2026-04-30 16:25 699K
20260430T12Z_MSC_GDPS_WindU_IsbL-0020_LatLon0.15_PT120H.grib2 2026-04-30 16:25 729K
20260430T12Z_MSC_GDPS_WindU_IsbL-0030_LatLon0.15_PT120H.grib2 2026-04-30 16:25 740K
20260430T12Z_MSC_GDPS_WindU_IsbL-0050_LatLon0.15_PT120H.grib2 2026-04-30 16:25 697K
20260430T12Z_MSC_GDPS_WindU_IsbL-0100_LatLon0.15_PT120H.grib2 2026-04-30 16:25 923K
20260430T12Z_MSC_GDPS_WindU_IsbL-0150_LatLon0.15_PT120H.grib2 2026-04-30 16:25 1.0M
20260430T12Z_MSC_GDPS_WindU_IsbL-0175_LatLon0.15_PT120H.grib2 2026-04-30 16:25 1.0M
20260430T12Z_MSC_GDPS_WindU_IsbL-0200_LatLon0.15_PT120H.grib2 2026-04-30 16:25 837K
20260430T12Z_MSC_GDPS_WindU_IsbL-0225_LatLon0.15_PT120H.grib2 2026-04-30 16:25 846K
20260430T12Z_MSC_GDPS_WindU_IsbL-0250_LatLon0.15_PT120H.grib2 2026-04-30 16:25 848K
20260430T12Z_MSC_GDPS_WindU_IsbL-0275_LatLon0.15_PT120H.grib2 2026-04-30 16:25 874K
20260430T12Z_MSC_GDPS_WindU_IsbL-0300_LatLon0.15_PT120H.grib2 2026-04-30 16:25 927K
20260430T12Z_MSC_GDPS_WindU_IsbL-0350_LatLon0.15_PT120H.grib2 2026-04-30 16:25 885K
20260430T12Z_MSC_GDPS_WindU_IsbL-0400_LatLon0.15_PT120H.grib2 2026-04-30 16:25 889K
20260430T12Z_MSC_GDPS_WindU_IsbL-0450_LatLon0.15_PT120H.grib2 2026-04-30 16:25 891K
20260430T12Z_MSC_GDPS_WindU_IsbL-0500_LatLon0.15_PT120H.grib2 2026-04-30 16:25 1.1M
20260430T12Z_MSC_GDPS_WindU_IsbL-0550_LatLon0.15_PT120H.grib2 2026-04-30 16:25 1.1M
20260430T12Z_MSC_GDPS_WindU_IsbL-0600_LatLon0.15_PT120H.grib2 2026-04-30 16:25 1.1M
20260430T12Z_MSC_GDPS_WindU_IsbL-0650_LatLon0.15_PT120H.grib2 2026-04-30 16:25 1.2M
20260430T12Z_MSC_GDPS_WindU_IsbL-0700_LatLon0.15_PT120H.grib2 2026-04-30 16:25 1.2M
20260430T12Z_MSC_GDPS_WindU_IsbL-0750_LatLon0.15_PT120H.grib2 2026-04-30 16:25 1.3M
20260430T12Z_MSC_GDPS_WindU_IsbL-0800_LatLon0.15_PT120H.grib2 2026-04-30 16:25 1.4M
20260430T12Z_MSC_GDPS_WindU_IsbL-0850_LatLon0.15_PT120H.grib2 2026-04-30 16:25 1.4M
20260430T12Z_MSC_GDPS_WindU_IsbL-0875_LatLon0.15_PT120H.grib2 2026-04-30 16:25 1.5M
20260430T12Z_MSC_GDPS_WindU_IsbL-0900_LatLon0.15_PT120H.grib2 2026-04-30 16:25 1.5M
20260430T12Z_MSC_GDPS_WindU_IsbL-0925_LatLon0.15_PT120H.grib2 2026-04-30 16:25 1.5M
20260430T12Z_MSC_GDPS_WindU_IsbL-0950_LatLon0.15_PT120H.grib2 2026-04-30 16:25 1.4M
20260430T12Z_MSC_GDPS_WindU_IsbL-0970_LatLon0.15_PT120H.grib2 2026-04-30 16:25 1.4M
20260430T12Z_MSC_GDPS_WindU_IsbL-0985_LatLon0.15_PT120H.grib2 2026-04-30 16:25 1.4M
20260430T12Z_MSC_GDPS_WindU_IsbL-1000_LatLon0.15_PT120H.grib2 2026-04-30 16:25 1.4M
20260430T12Z_MSC_GDPS_WindU_IsbL-1015_LatLon0.15_PT120H.grib2 2026-04-30 16:25 1.3M
20260430T12Z_MSC_GDPS_WindV_AGL-10m_LatLon0.15_PT120H.grib2 2026-04-30 16:25 1.6M
20260430T12Z_MSC_GDPS_WindV_AGL-120m_LatLon0.15_PT120H.grib2 2026-04-30 16:25 970K
20260430T12Z_MSC_GDPS_WindV_AGL-40m_LatLon0.15_PT120H.grib2 2026-04-30 16:25 964K
20260430T12Z_MSC_GDPS_WindV_AGL-80m_LatLon0.15_PT120H.grib2 2026-04-30 16:25 970K
20260430T12Z_MSC_GDPS_WindV_IsbL-0001_LatLon0.15_PT120H.grib2 2026-04-30 16:25 777K
20260430T12Z_MSC_GDPS_WindV_IsbL-0005_LatLon0.15_PT120H.grib2 2026-04-30 16:25 853K
20260430T12Z_MSC_GDPS_WindV_IsbL-0010_LatLon0.15_PT120H.grib2 2026-04-30 16:25 882K
20260430T12Z_MSC_GDPS_WindV_IsbL-0020_LatLon0.15_PT120H.grib2 2026-04-30 16:25 932K
20260430T12Z_MSC_GDPS_WindV_IsbL-0030_LatLon0.15_PT120H.grib2 2026-04-30 16:25 936K
20260430T12Z_MSC_GDPS_WindV_IsbL-0050_LatLon0.15_PT120H.grib2 2026-04-30 16:25 901K
20260430T12Z_MSC_GDPS_WindV_IsbL-0100_LatLon0.15_PT120H.grib2 2026-04-30 16:25 853K
20260430T12Z_MSC_GDPS_WindV_IsbL-0150_LatLon0.15_PT120H.grib2 2026-04-30 16:25 1.0M
20260430T12Z_MSC_GDPS_WindV_IsbL-0175_LatLon0.15_PT120H.grib2 2026-04-30 16:25 808K
20260430T12Z_MSC_GDPS_WindV_IsbL-0200_LatLon0.15_PT120H.grib2 2026-04-30 16:25 835K
20260430T12Z_MSC_GDPS_WindV_IsbL-0225_LatLon0.15_PT120H.grib2 2026-04-30 16:25 903K
20260430T12Z_MSC_GDPS_WindV_IsbL-0250_LatLon0.15_PT120H.grib2 2026-04-30 16:25 903K
20260430T12Z_MSC_GDPS_WindV_IsbL-0275_LatLon0.15_PT120H.grib2 2026-04-30 16:25 928K
20260430T12Z_MSC_GDPS_WindV_IsbL-0300_LatLon0.15_PT120H.grib2 2026-04-30 16:25 922K
20260430T12Z_MSC_GDPS_WindV_IsbL-0350_LatLon0.15_PT120H.grib2 2026-04-30 16:25 936K
20260430T12Z_MSC_GDPS_WindV_IsbL-0400_LatLon0.15_PT120H.grib2 2026-04-30 16:25 878K
20260430T12Z_MSC_GDPS_WindV_IsbL-0450_LatLon0.15_PT120H.grib2 2026-04-30 16:25 879K
20260430T12Z_MSC_GDPS_WindV_IsbL-0500_LatLon0.15_PT120H.grib2 2026-04-30 16:25 1.1M
20260430T12Z_MSC_GDPS_WindV_IsbL-0550_LatLon0.15_PT120H.grib2 2026-04-30 16:25 1.1M
20260430T12Z_MSC_GDPS_WindV_IsbL-0600_LatLon0.15_PT120H.grib2 2026-04-30 16:25 1.1M
20260430T12Z_MSC_GDPS_WindV_IsbL-0650_LatLon0.15_PT120H.grib2 2026-04-30 16:25 1.2M
20260430T12Z_MSC_GDPS_WindV_IsbL-0700_LatLon0.15_PT120H.grib2 2026-04-30 16:25 1.2M
20260430T12Z_MSC_GDPS_WindV_IsbL-0750_LatLon0.15_PT120H.grib2 2026-04-30 16:25 1.2M
20260430T12Z_MSC_GDPS_WindV_IsbL-0800_LatLon0.15_PT120H.grib2 2026-04-30 16:25 1.3M
20260430T12Z_MSC_GDPS_WindV_IsbL-0850_LatLon0.15_PT120H.grib2 2026-04-30 16:25 1.4M
20260430T12Z_MSC_GDPS_WindV_IsbL-0875_LatLon0.15_PT120H.grib2 2026-04-30 16:25 1.5M
20260430T12Z_MSC_GDPS_WindV_IsbL-0900_LatLon0.15_PT120H.grib2 2026-04-30 16:25 1.5M
20260430T12Z_MSC_GDPS_WindV_IsbL-0925_LatLon0.15_PT120H.grib2 2026-04-30 16:25 1.5M
20260430T12Z_MSC_GDPS_WindV_IsbL-0950_LatLon0.15_PT120H.grib2 2026-04-30 16:25 1.4M
20260430T12Z_MSC_GDPS_WindV_IsbL-0970_LatLon0.15_PT120H.grib2 2026-04-30 16:25 1.4M
20260430T12Z_MSC_GDPS_WindV_IsbL-0985_LatLon0.15_PT120H.grib2 2026-04-30 16:25 1.4M
20260430T12Z_MSC_GDPS_WindV_IsbL-1000_LatLon0.15_PT120H.grib2 2026-04-30 16:25 1.4M
20260430T12Z_MSC_GDPS_WindV_IsbL-1015_LatLon0.15_PT120H.grib2 2026-04-30 16:25 1.6M